Wetbulb
48.85 46.68 43.56 45.98 49.67 49.37 47.97 47.74 47.89 49.78 54.16 53.70 53.48 54.28 54.30 57.85 58.10 56.86 55.96 55.46 55.52 55.28 57.14 58.19 58.81 58.74 57.54 56.52 55.44 54.39 53.92 54.72 54.99 54.30 53.99 54.04 54.17 55.08 55.44 55.57 56.41 56.52 56.71 56.44
47.05 43.45 48.20 49.75 50.03 50.39 50.37 48.63 48.58 51.19 54.47 52.69 50.69 50.92 53.70 55.97 58.13 59.01 59.28 58.74 56.87 56.48 56.36 58.17 58.74 57.86 57.32 56.29 57.00 55.12 54.66 54.47 54.62 54.19 53.78 53.96 54.19 54.91 55.55 55.96 56.30 56.57 56.66 56.33
45.36 47.63 51.10 49.95 48.48 49.98 48.33 48.43 47.80 48.65 52.82 52.71 49.00 46.99 49.84 56.11 58.26 59.60 60.18 61.13 60.48 58.39 56.71 57.56 58.78 58.33 57.68 57.84 58.82 56.41 56.02 54.43 54.45 55.67 55.87 55.57 55.79 55.02 54.92 55.37 55.34 56.12 56.40 56.49
46.70 49.80 49.65 48.48 47.86 50.26 45.16 50.33 51.56 51.11 47.42 42.89 47.64 40.61 46.02 52.21 53.71 57.51 58.16 59.25 60.26 59.86 59.54 58.64 58.67 58.18 58.87 59.19 60.15 58.87 57.00 54.64 54.42 55.51 55.45 54.60 54.25 53.82 53.82 54.04 54.70 55.08 56.42 56.22
46.83 47.85 47.83 46.57 48.45 51.39 48.55 52.41 51.13 50.12 46.01 43.26 45.61 42.41 46.69 51.63 50.75 52.53 54.49 58.30 58.96 59.26 60.25 59.92 58.79 59.06 60.19 60.67 60.62 60.11 56.86 55.42 54.94 55.71 56.24 54.70 53.80 53.74 54.13 54.70 55.14 54.62 55.18 55.38
46.98 49.89 49.29 48.68 52.33 53.32 54.38 50.05 46.78 45.54 43.60 39.19 43.70 43.45 44.99 47.38 49.36 52.19 54.18 55.15 56.76 56.85 57.84 60.67 59.13 59.44 60.14 61.43 60.74 60.46 56.49 55.75 55.64 55.24 55.96 55.07 55.13 54.12 53.74 53.64 53.55 54.23 54.04 54.19
46.34 47.06 48.73 52.37 49.49 51.34 49.19 44.33 39.50 39.02 38.01 37.92 44.29 44.76 45.73 49.77 52.51 53.77 54.15 54.85 56.25 56.75 56.98 58.32 57.17 58.51 59.65 59.75 60.89 61.71 58.39 55.45 55.91 55.58 55.38 55.21 54.62 54.11 54.45 53.19 54.29 53.99 53.99 53.86
41.46 41.76 46.85 50.73 50.29 48.17 46.92 44.56 40.00 35.03 35.42 37.58 44.09 42.15 46.32 52.42 54.40 54.60 55.97 55.86 56.41 56.11 56.05 57.80 57.61 59.26 59.81 60.28 61.36 62.85 58.85 56.03 55.78 55.55 56.13 56.30 55.60 54.53 54.57 54.57 54.55 54.21 53.93 54.70
40.79 42.46 49.51 53.48 53.25 52.24 47.90 44.39 45.86 40.95 39.18 36.98 39.50 44.81 48.84 52.68 53.05 54.80 54.85 55.58 55.19 56.29 56.84 57.34 58.18 59.60 59.82 60.99 62.39 61.13 59.54 56.47 56.05 55.73 56.23 56.61 56.35 55.64 55.81 55.14 54.49 53.55 54.15 54.69
45.69 41.83 46.88 52.37 53.38 53.26 48.62 50.29 43.26 40.95 35.42 34.10 38.69 41.22 42.62 48.41 50.46 53.22 53.93 53.78 54.37 56.39 57.74 57.71 58.83 59.33 60.29 61.35 61.53 59.95 58.01 56.23 56.53 56.07 55.98 56.45 56.50 55.91 55.85 55.12 54.78 54.72 54.78 54.82
45.39 43.85 44.32 48.77 46.79 47.07 47.75 45.47 44.51 42.41 40.58 36.99 35.71 40.60 46.56 49.13 50.75 51.60 53.05 53.58 54.65 56.51 57.84 58.56 58.55 59.23 59.96 60.63 60.33 57.85 58.12 57.39 56.29 56.31 56.87 56.76 56.17 56.17 55.83 54.82 54.74 54.76 55.27 55.35
46.42 43.02 40.55 44.39 49.35 50.42 48.00 45.92 45.07 40.54 38.91 40.30 39.29 41.14 51.39 50.89 51.59 52.24 53.36 54.30 55.27 56.36 57.91 58.71 59.43 58.81 58.97 59.20 58.98 58.13 58.33 57.92 57.30 57.42 57.63 56.27 55.84 55.54 55.27 55.33 55.69 55.39 54.86 55.44
50.13 43.47 40.49 43.38 45.95 47.98 46.17 47.82 46.19 43.23 42.51 40.15 38.82 41.63 52.46 52.83 51.94 52.99 52.99 54.12 53.92 54.33 55.27 58.34 58.61 59.18 59.21 59.00 59.08 58.69 59.09 59.21 57.82 57.76 58.06 56.01 55.42 55.03 54.90 55.27 55.81 55.48 55.36 55.52
52.56 43.54 42.28 39.50 42.08 45.07 45.97 47.81 48.03 44.81 40.05 40.65 41.66 44.22 47.29 51.20 52.04 53.59 53.65 53.38 53.32 54.43 54.99 55.96 57.48 57.79 58.94 59.66 59.50 59.14 58.51 57.75 57.55 57.64 56.33 55.58 54.96 54.81 54.83 55.28 55.15 55.12 55.60 55.26
46.78 42.82 44.74 45.59 47.74 48.98 47.84 47.36 47.84 45.72 44.94 43.75 44.76 44.95 48.45 51.49 52.10 52.79 54.44 54.56 54.83 54.31 54.93 55.36 56.08 57.02 58.34 58.40 58.88 59.34 58.42 57.31 56.60 56.47 56.02 55.03 55.01 54.87 54.80 54.85 55.26 55.42 55.52 56.01
48.44 43.28 45.57 45.23 49.86 49.82 47.42 49.41 49.90 49.76 48.91 47.43 48.84 47.76 52.60 53.85 53.87 54.20 55.28 55.61 54.95 53.95 56.77 56.38 57.13 57.25 58.98 58.88 58.65 58.71 57.51 56.96 57.05 56.10 54.86 54.88 54.44 54.32 54.58 54.87 55.18 55.16 55.26 55.36
48.09 46.63 44.29 40.76 47.45 46.47 41.38 47.62 49.78 50.75 51.45 50.21 46.92 48.95 54.56 53.63 54.60 54.24 53.96 54.89 55.13 55.89 56.92 57.30 56.65 57.47 58.90 59.10 59.07 57.30 56.75 57.12 56.69 55.72 55.45 55.70 56.06 55.78 55.74 55.42 54.33 54.12 54.46 54.63
49.51 46.97 44.73 43.07 43.63 37.37 45.28 53.02 53.82 51.91 52.95 53.60 52.57 53.69 54.55 54.48 55.40 55.43 55.79 56.34 56.06 56.68 57.97 57.45 56.88 57.21 57.75 57.69 57.17 56.63 56.67 56.63 56.69 56.29 56.02 56.35 55.98 55.34 54.88 54.68 55.16 55.52 55.31 55.71
49.59 47.43 42.91 41.67 39.46 44.37 48.32 50.90 49.89 48.58 48.54 54.85 52.34 54.17 55.25 55.85 55.98 55.28 57.71 57.99 58.81 59.10 59.04 57.93 57.82 57.62 57.20 56.43 56.37 56.68 55.72 55.70 55.68 54.86 55.50 56.52 56.36 56.70 56.58 55.42 55.08 55.49 54.82 54.18
49.49 47.14 44.93 41.60 39.46 37.94 46.10 53.67 55.73 53.27 44.67 54.79 54.29 54.54 54.60 55.19 49.35 52.27 57.75 59.26 59.31 59.91 58.51 57.60 57.49 57.00 56.31 55.09 56.04 57.48 57.14 57.66 57.34 57.72 57.72 57.02 56.68 55.42 53.89 53.69 54.06 53.41 53.23 53.15
44.94 44.22 43.11 39.96 40.47 44.99 50.56 55.17 55.70 44.43 46.17 55.24 55.88 55.54 55.24 53.19 54.21 56.46 58.53 59.34 60.74 59.26 58.53 57.32 55.67 53.82 54.01 57.63 58.38 57.73 57.63 56.55 56.42 55.42 54.11 53.01 52.46 53.43 52.18 51.37 51.68 51.39 51.24 50.99
44.26 43.06 42.73 42.17 39.60 40.14 55.01 54.55 49.14 50.95 54.78 56.59 56.76 56.89 56.49 56.44 56.90 57.83 58.47 58.85 58.62 58.53 57.43 56.06 54.39 54.23 54.82 56.72 57.13 55.59 55.15 55.91 53.22 52.08 51.11 50.38 50.26 51.38 50.73 49.95 49.97 49.96 49.91 49.57
43.67 46.54 44.63 46.34 45.79 50.73 54.13 55.35 56.33 56.82 55.92 57.17 56.94 57.12 56.07 55.95 55.58 57.68 57.41 57.26 58.65 58.11 56.58 56.21 55.88 54.15 53.70 54.35 55.34 53.66 54.52 53.19 50.61 49.46 48.75 48.67 48.93 49.48 50.11 49.87 49.04 48.59 49.30 48.98
48.22 51.77 48.97 49.10 50.33 52.57 54.95 56.73 57.92 57.97 57.91 58.36 57.84 56.87 57.63 57.47 57.93 57.62 57.61 57.16 57.30 56.51 55.79 56.96 54.11 51.81 50.30 50.10 51.31 52.56 52.81 50.78 49.18 48.16 47.81 47.84 48.11 47.76 48.80 49.37 49.39 49.23 48.76 48.06
49.93 50.82 48.88 49.04 51.43 53.37 54.93 55.60 56.42 57.72 58.46 58.08 58.34 58.06 57.64 58.23 57.97 56.90 55.59 56.82 56.83 56.47 57.32 55.72 52.71 50.95 49.99 49.54 49.26 49.88 50.74 49.93 47.68 47.36 47.49 47.11 47.31 47.83 47.71 47.74 48.17 48.13 47.71 46.34
52.02 50.23 48.57 47.61 51.68 52.51 53.19 54.85 56.92 56.25 56.78 58.08 58.42 58.55 59.41 58.91 57.74 57.65 56.89 57.33 57.55 57.02 55.17 52.54 51.85 50.98 49.71 48.38 47.61 48.62 49.48 49.73 49.06 47.77 47.16 46.87 47.21 47.30 47.60 47.82 48.32 43.04 42.12 40.90
MSLP
1011.73 1012.57 1013.35 1013.18 1013.38 1013.34 1013.68 1014.07 1014.14 1014.31 1014.24 1015.20 1015.36 1015.20 1014.94 1015.20 1015.65 1016.03 1016.07 1015.51 1015.42 1015.82 1015.63 1016.08 1016.72 1017.48 1018.25 1018.92 1019.36 1019.59 1019.89 1020.02 1020.31 1020.75 1021.11 1021.62 1021.77 1021.65 1021.56 1021.47 1021.62 1021.47 1021.40 1021.33
1011.92 1012.12 1011.92 1011.87 1012.21 1012.59 1013.02 1013.58 1013.60 1014.13 1014.41 1014.99 1015.33 1015.08 1015.06 1014.97 1014.73 1015.12 1015.03 1014.87 1015.33 1015.24 1015.51 1015.92 1017.01 1017.30 1017.67 1018.43 1019.26 1019.47 1019.54 1019.83 1020.32 1020.67 1020.88 1021.06 1021.07 1021.13 1021.15 1021.23 1021.28 1021.26 1021.27 1021.34
1011.54 1011.61 1011.23 1011.26 1011.61 1012.20 1012.59 1013.01 1013.54 1014.24 1014.70 1015.06 1015.32 1015.14 1014.97 1014.74 1014.65 1014.61 1014.52 1014.64 1014.59 1014.62 1014.94 1015.29 1016.48 1017.00 1017.57 1018.69 1019.11 1019.25 1019.65 1019.84 1020.03 1020.48 1020.79 1021.08 1021.28 1021.22 1021.41 1021.27 1021.40 1020.90 1020.78 1021.00
1011.53 1011.22 1011.14 1011.05 1011.48 1011.87 1012.40 1012.38 1013.25 1014.29 1015.41 1016.05 1016.26 1016.44 1015.17 1014.93 1014.61 1014.58 1014.23 1013.91 1013.68 1013.84 1013.99 1014.23 1015.17 1015.71 1016.98 1018.06 1018.90 1019.59 1020.35 1020.60 1020.23 1020.41 1020.77 1021.13 1021.33 1021.46 1021.40 1021.16 1021.26 1020.89 1020.68 1020.48
1011.52 1011.27 1011.10 1011.12 1011.20 1011.50 1012.39 1012.65 1013.69 1014.96 1015.96 1016.72 1016.84 1016.93 1015.31 1015.04 1014.59 1014.11 1013.66 1013.45 1013.83 1013.51 1013.31 1013.03 1013.62 1014.63 1016.22 1018.52 1019.80 1020.51 1020.89 1021.08 1020.60 1020.51 1020.92 1021.33 1021.60 1021.59 1021.57 1021.27 1021.36 1021.00 1020.75 1020.59
1011.65 1011.03 1010.86 1010.71 1010.85 1011.44 1012.62 1013.83 1014.90 1015.89 1016.73 1017.58 1017.80 1017.55 1016.04 1015.13 1014.75 1014.02 1013.55 1013.50 1013.56 1013.35 1012.97 1012.16 1013.53 1015.41 1017.23 1018.28 1018.84 1019.01 1019.66 1020.00 1020.32 1020.49 1020.68 1021.08 1021.22 1021.36 1021.57 1021.56 1021.47 1021.04 1020.85 1020.62
1011.89 1011.19 1010.74 1010.49 1011.05 1011.88 1012.63 1014.23 1016.13 1017.14 1017.89 1018.59 1017.90 1017.58 1015.74 1014.75 1014.42 1014.29 1013.99 1013.61 1013.13 1012.94 1013.00 1013.33 1014.23 1015.26 1015.98 1016.69 1017.91 1017.77 1018.20 1019.40 1019.52 1019.67 1020.26 1020.50 1020.66 1021.04 1021.24 1021.28 1021.22 1020.99 1020.84 1020.59
1012.71 1011.99 1011.04 1010.55 1011.15 1012.13 1013.52 1014.65 1016.13 1017.66 1018.88 1018.85 1017.87 1016.96 1014.98 1014.27 1014.17 1014.10 1014.13 1014.02 1013.57 1013.44 1013.95 1014.15 1014.88 1015.58 1016.19 1016.67 1016.59 1016.13 1016.96 1017.98 1018.65 1019.11 1019.76 1020.09 1020.32 1020.46 1020.80 1020.82 1020.81 1020.69 1020.48 1020.17
1012.79 1012.15 1011.20 1011.07 1011.32 1012.16 1013.61 1014.83 1015.84 1017.39 1018.86 1019.14 1017.93 1016.50 1014.96 1014.12 1014.10 1014.14 1014.25 1014.28 1014.21 1013.91 1014.54 1014.75 1015.17 1015.55 1015.85 1016.13 1015.99 1016.42 1017.33 1017.97 1018.09 1018.59 1019.24 1019.61 1019.78 1020.11 1020.30 1020.38 1020.43 1020.25 1019.99 1019.82
1012.21 1012.47 1011.94 1011.80 1011.74 1012.76 1013.27 1014.81 1015.99 1017.36 1018.79 1019.07 1018.12 1017.11 1015.69 1014.82 1014.37 1014.48 1014.81 1015.09 1014.96 1014.64 1015.05 1015.25 1015.54 1015.67 1015.79 1015.64 1016.01 1016.67 1017.28 1017.63 1017.72 1018.17 1018.82 1019.03 1019.27 1019.53 1019.75 1020.06 1020.09 1019.92 1019.64 1019.54
1012.23 1012.73 1012.79 1012.32 1012.48 1012.95 1013.93 1015.03 1016.57 1017.70 1018.74 1019.02 1018.81 1016.83 1015.49 1015.05 1014.89 1014.77 1015.16 1015.47 1015.63 1015.56 1015.69 1015.95 1015.95 1016.16 1016.26 1016.24 1016.65 1017.00 1017.26 1017.46 1017.91 1018.11 1018.22 1018.58 1018.86 1019.03 1019.28 1019.48 1019.45 1019.38 1019.30 1019.08
1012.58 1013.45 1013.71 1013.41 1012.86 1013.05 1013.50 1014.53 1015.77 1017.60 1018.75 1018.95 1018.60 1016.56 1015.30 1015.17 1015.22 1015.21 1015.25 1015.33 1015.54 1015.80 1015.83 1016.09 1016.06 1016.23 1016.48 1016.62 1016.88 1017.22 1017.23 1017.41 1017.53 1017.86 1017.95 1018.15 1018.44 1018.65 1018.87 1018.91 1018.72 1018.76 1018.75 1018.53
1012.51 1014.16 1014.50 1013.95 1013.62 1013.38 1013.72 1014.50 1015.66 1016.91 1017.72 1018.26 1018.35 1016.43 1015.24 1015.18 1015.10 1015.11 1015.33 1015.48 1015.48 1015.65 1015.49 1015.89 1016.01 1016.13 1016.26 1016.54 1016.76 1016.94 1017.04 1017.38 1017.61 1017.48 1017.79 1018.06 1018.08 1018.14 1018.26 1018.28 1018.15 1018.18 1018.13 1017.97
1012.45 1014.37 1014.88 1015.13 1014.55 1014.24 1014.15 1014.40 1015.33 1016.25 1017.56 1017.65 1017.01 1015.85 1015.15 1014.93 1014.86 1015.11 1015.29 1015.44 1015.59 1015.69 1015.59 1015.53 1015.35 1015.83 1016.08 1016.22 1016.71 1016.82 1016.98 1017.14 1017.10 1017.38 1017.47 1017.67 1017.74 1017.77 1017.79 1017.75 1017.70 1017.57 1017.47 1017.41
1013.24 1014.69 1014.69 1014.64 1014.31 1014.06 1014.03 1014.27 1014.90 1015.69 1016.03 1016.35 1015.92 1015.66 1014.70 1014.50 1014.95 1015.06 1014.90 1014.85 1015.25 1015.73 1015.75 1015.60 1015.22 1015.31 1015.78 1016.17 1016.47 1016.75 1016.82 1016.95 1016.89 1016.71 1017.05 1017.16 1017.33 1017.32 1017.44 1017.44 1017.36 1017.35 1017.22 1016.96
1014.02 1014.96 1014.89 1014.95 1014.39 1014.25 1014.04 1013.97 1014.17 1014.75 1015.38 1015.80 1015.53 1015.12 1014.40 1014.53 1014.66 1014.72 1014.41 1014.22 1014.18 1014.99 1015.61 1015.65 1015.44 1015.15 1015.52 1015.89 1016.16 1016.28 1016.50 1016.59 1016.63 1016.83 1016.86 1016.90 1017.19 1017.34 1017.53 1017.52 1017.08 1016.79 1016.62 1016.51
1014.73 1015.67 1016.11 1015.87 1015.02 1014.56 1014.55 1014.01 1014.34 1014.76 1015.27 1015.75 1015.61 1015.09 1014.63 1014.58 1014.50 1014.31 1014.39 1014.41 1014.64 1014.74 1015.12 1015.30 1015.43 1015.44 1015.61 1016.10 1016.30 1016.37 1016.53 1016.61 1016.88 1016.97 1017.07 1017.01 1017.05 1017.17 1017.04 1016.88 1016.84 1016.82 1016.65 1016.44
1015.12 1016.08 1016.75 1016.81 1015.93 1015.38 1014.16 1014.02 1014.17 1014.76 1015.45 1015.57 1015.34 1015.04 1014.79 1014.65 1014.45 1014.14 1014.45 1014.66 1014.63 1015.05 1015.10 1015.50 1015.60 1015.94 1015.99 1016.19 1016.52 1016.66 1016.79 1016.93 1016.88 1016.95 1016.99 1016.87 1016.79 1016.93 1016.97 1017.00 1017.01 1016.82 1016.70 1016.69
1015.29 1016.22 1017.39 1017.48 1017.01 1015.82 1014.56 1014.43 1014.71 1015.09 1015.46 1015.57 1015.59 1015.23 1014.81 1014.41 1014.39 1014.18 1014.27 1014.16 1014.26 1014.82 1015.34 1015.60 1016.05 1016.37 1016.38 1016.53 1016.88 1016.97 1016.99 1017.28 1017.25 1017.25 1017.23 1017.04 1017.04 1017.15 1017.15 1017.10 1017.11 1017.07 1017.03 1017.03
1016.17 1016.53 1017.20 1018.03 1017.58 1016.63 1015.24 1015.00 1014.98 1015.37 1015.72 1015.44 1015.67 1015.36 1014.94 1015.03 1015.45 1015.01 1014.71 1014.72 1014.67 1015.07 1015.68 1015.99 1016.67 1016.76 1016.95 1017.17 1017.01 1017.20 1017.57 1017.66 1017.88 1017.84 1017.72 1017.42 1017.44 1017.51 1017.48 1017.49 1017.49 1017.57 1017.53 1017.59
1017.09 1017.86 1018.29 1018.31 1017.73 1016.55 1015.76 1015.48 1015.32 1015.83 1015.82 1015.34 1015.58 1015.48 1015.66 1015.71 1015.36 1014.94 1015.01 1015.00 1015.27 1015.29 1015.93 1016.46 1017.15 1017.17 1017.39 1017.39 1017.56 1017.99 1018.10 1018.16 1018.07 1018.05 1018.09 1017.82 1017.89 1017.95 1017.91 1017.89 1017.90 1018.02 1018.08 1018.01
1018.10 1018.52 1018.89 1018.90 1018.20 1017.16 1016.13 1015.93 1016.01 1015.81 1015.34 1015.35 1015.64 1016.04 1016.31 1016.16 1015.67 1015.20 1014.99 1015.04 1015.30 1015.55 1016.33 1017.01 1017.57 1017.86 1018.09 1018.10 1017.94 1018.44 1018.47 1018.58 1018.56 1018.57 1018.49 1018.43 1018.44 1018.39 1018.33 1018.24 1018.38 1018.45 1018.51 1018.44
1018.40 1018.45 1018.71 1018.95 1017.73 1016.61 1016.24 1016.12 1015.45 1015.89 1016.19 1016.19 1016.28 1016.30 1016.34 1016.26 1015.69 1015.10 1014.97 1015.19 1015.51 1015.74 1016.44 1017.45 1017.94 1018.34 1018.63 1018.49 1018.35 1018.65 1019.03 1018.96 1019.03 1019.11 1019.03 1019.06 1018.88 1018.78 1018.73 1018.70 1018.82 1018.88 1019.01 1019.01
1018.14 1018.23 1018.39 1018.24 1016.93 1016.51 1016.08 1015.83 1015.49 1015.91 1016.14 1016.23 1016.28 1016.35 1016.29 1016.17 1015.95 1015.51 1015.18 1015.70 1016.21 1016.25 1017.00 1017.90 1018.45 1018.88 1019.17 1019.06 1018.89 1018.88 1019.19 1019.25 1019.34 1019.19 1019.46 1019.70 1019.35 1019.27 1019.24 1019.18 1019.31 1019.33 1019.41 1019.45
1018.06 1018.16 1018.16 1017.87 1016.69 1016.34 1015.49 1015.64 1015.80 1015.70 1015.50 1015.56 1015.79 1015.89 1015.77 1015.58 1015.31 1015.58 1015.55 1016.02 1016.41 1016.78 1017.54 1018.15 1018.61 1019.04 1019.25 1019.36 1019.08 1019.08 1019.41 1019.53 1019.61 1019.42 1019.48 1019.83 1019.80 1019.71 1019.74 1019.70 1019.71 1019.66 1019.73 1019.68
1017.42 1017.14 1017.30 1016.67 1016.18 1016.39 1015.84 1015.60 1015.48 1015.40 1015.28 1015.34 1015.52 1015.49 1015.52 1015.42 1015.78 1016.14 1015.63 1016.65 1016.67 1017.06 1017.98 1018.66 1019.00 1019.17 1019.53 1019.66 1019.52 1019.57 1019.80 1019.85 1019.68 1019.58 1019.69 1019.88 1020.14 1020.09 1019.99 1019.97 1020.01 1019.87 1019.78 1019.73
Wind_Speed
3 5 3 9 10 5 2 3 4 4 4 6 11 13 9 7 11 8 9 13 13 14 8 9 9 8 6 5 6 7 6 5 3 1 2 1 2 1 2 2 4 3 2 0
4 2 4 6 1 4 3 3 5 1 2 4 0 10 2 5 11 14 13 15 13 14 8 7 6 8 9 8 5 6 7 6 3 2 2 2 2 2 2 2 3 3 3 2
3 5 7 5 5 3 3 4 1 2 2 2 5 8 5 3 2 7 10 10 10 14 15 11 10 11 7 6 7 7 6 6 5 4 2 2 2 1 1 2 3 3 4 3
1 4 5 8 3 3 3 3 5 4 4 2 3 5 4 4 7 6 9 12 15 12 12 14 13 15 12 10 5 3 3 4 4 4 2 3 2 2 2 2 2 3 4 5
6 4 7 4 4 0 3 4 5 4 3 1 5 3 8 5 6 6 9 13 7 10 13 19 17 16 10 10 7 9 5 5 3 3 1 1 1 1 2 1 4 4 3 3
5 3 3 4 3 4 6 5 7 5 3 5 6 3 7 3 4 8 4 3 7 9 12 14 6 12 14 10 9 8 8 7 4 3 2 4 4 3 2 2 3 2 2 3
6 5 4 2 3 4 5 6 4 6 7 4 4 2 9 6 5 4 9 12 11 10 11 5 11 16 16 17 14 12 12 8 7 6 5 7 5 5 5 5 4 4 2 3
3 8 2 4 2 4 3 4 6 1 1 5 4 4 6 4 2 4 6 8 9 10 7 6 10 12 12 15 17 17 13 11 8 6 7 5 5 3 4 5 4 4 3 4
5 5 4 2 3 3 1 2 3 7 3 2 3 7 7 2 1 5 8 9 10 13 12 6 10 11 14 15 17 6 7 6 7 8 6 6 6 5 5 6 5 4 4 4
7 2 3 4 3 5 2 4 3 4 0 3 5 5 7 5 6 3 7 9 11 12 12 9 7 11 11 14 4 7 7 7 8 7 6 6 6 6 5 4 6 6 6 4
5 5 6 2 1 5 1 1 6 5 4 5 2 8 5 5 7 6 6 7 8 9 9 6 4 3 5 3 4 6 6 6 6 6 6 7 6 6 5 5 6 6 5 7
1 6 1 6 3 2 1 3 5 6 4 2 4 9 3 3 5 3 5 6 6 6 5 4 4 5 5 5 4 5 6 6 8 6 6 6 5 5 5 6 8 5 8 7
6 3 3 9 7 4 1 2 5 4 3 5 5 8 2 2 4 5 4 7 7 7 8 3 1 4 5 5 5 6 7 7 6 5 4 4 6 6 7 7 8 6 7 8
8 4 7 7 6 3 5 3 3 4 4 4 7 6 4 6 7 3 5 3 7 8 7 7 5 2 4 5 4 5 5 6 3 4 4 5 6 5 6 7 8 8 7 9
5 4 4 4 6 3 3 1 4 5 4 5 3 6 7 7 3 3 4 3 7 9 9 9 7 5 2 4 4 5 3 4 4 4 1 6 5 4 5 7 7 6 6 7
3 1 2 2 2 3 3 4 3 2 3 7 4 6 2 2 1 4 2 1 0 4 5 5 7 5 3 1 0 3 2 3 2 2 4 3 5 5 5 5 6 5 6 6
3 5 4 4 4 4 5 3 3 2 4 1 4 3 3 0 2 2 4 3 5 5 6 7 6 4 3 1 2 3 4 3 1 3 5 4 4 5 5 5 5 5 5 5
5 5 3 3 3 0 7 1 2 5 2 4 3 4 4 1 2 5 1 2 6 6 6 5 5 3 4 3 3 4 4 3 3 3 4 4 4 5 5 4 4 4 3 5
3 5 3 4 3 5 2 1 1 1 5 3 3 5 2 2 4 6 2 2 1 2 2 2 3 2 4 6 4 5 6 5 5 5 5 4 4 4 4 5 5 4 4 5
5 6 5 2 3 5 4 2 1 2 6 4 4 7 6 3 2 8 3 1 4 5 3 5 4 4 6 4 6 8 6 5 5 4 4 4 5 4 5 5 5 4 4 5
4 4 3 2 2 6 3 4 2 3 10 6 5 7 4 4 7 4 3 3 1 5 5 6 6 6 5 5 5 7 5 5 3 4 4 5 5 5 5 4 4 4 5 5
2 2 1 2 1 4 2 3 4 6 3 4 3 1 4 7 10 7 7 4 7 9 8 7 6 5 3 4 6 6 6 3 4 4 4 5 5 4 4 5 5 5 5 5
1 5 3 7 7 5 5 7 6 1 2 3 1 3 5 10 10 9 7 3 5 9 9 6 6 7 4 4 5 6 2 3 4 4 5 5 5 4 4 5 5 4 4 4
2 3 2 2 4 7 7 7 7 2 3 3 2 4 4 7 8 8 7 5 4 7 8 6 6 6 5 4 4 5 4 4 4 5 5 4 4 4 4 4 3 3 3 3
4 4 3 6 7 7 8 5 4 4 7 6 4 4 8 8 6 3 2 6 6 7 7 6 6 5 5 3 4 5 4 3 4 5 4 4 3 4 3 4 3 3 1 0
6 8 6 7 5 3 7 3 4 5 5 5 2 5 5 4 5 3 7 3 6 8 6 5 5 6 5 4 5 4 3 2 3 5 3 3 2 2 2 2 2 1 1 3
Wind_Direction
27 73 239 249 220 212 189 197 243 225 212 153 231 267 251 229 221 217 217 224 229 238 239 198 193 183 174 165 174 193 183 208 159 127 100 93 238 238 262 231 259 253 261 271
26 300 248 320 98 148 147 254 268 114 11 156 71 268 332 268 222 210 223 232 234 243 228 202 202 194 178 171 200 212 208 187 187 145 170 174 180 207 192 206 233 240 239 257
157 264 302 18 354 112 216 200 108 59 45 89 348 313 351 327 245 212 243 246 241 234 238 217 189 204 185 155 204 220 210 201 193 181 114 84 37 39 332 224 260 238 214 227
283 295 334 342 321 131 332 241 122 117 61 277 13 279 313 306 296 247 243 239 244 245 240 230 199 198 178 173 185 265 271 239 203 179 172 194 214 204 228 200 250 269 233 214
256 312 326 331 295 178 289 60 92 96 130 104 354 58 275 338 315 282 255 256 267 252 242 237 208 195 164 99 48 4 321 280 255 193 223 212 268 303 312 321 292 288 260 226
227 262 220 223 25 72 119 55 39 53 70 24 333 86 292 297 288 308 298 272 252 270 278 261 147 113 118 122 146 186 244 233 208 189 203 209 232 241 257 271 272 282 258 257
342 283 315 205 72 24 85 65 352 3 8 239 299 25 244 288 310 264 293 315 323 323 334 23 124 138 154 154 171 208 202 204 190 195 205 216 219 227 245 244 244 250 251 250
141 326 359 342 108 172 41 138 147 225 252 270 318 245 261 229 303 308 301 301 312 326 359 34 134 151 152 163 187 210 170 182 179 181 215 213 209 206 230 242 244 237 231 243
157 272 296 34 110 107 189 42 148 105 24 42 261 296 320 272 281 352 337 334 324 339 12 7 142 151 165 178 210 181 150 178 179 182 203 210 216 214 233 247 241 245 249 256
213 308 257 169 100 38 132 145 36 13 156 286 292 284 245 310 292 304 327 321 330 337 9 16 143 166 182 196 176 117 156 185 200 184 198 214 216 219 227 250 255 253 264 253
139 117 280 59 216 203 78 343 58 115 123 172 274 275 225 259 278 216 264 306 322 339 353 23 96 164 201 232 131 133 159 188 218 203 198 212 221 229 227 238 249 251 266 259
113 129 219 237 265 218 141 177 131 120 243 159 149 272 281 279 317 217 277 301 320 325 338 356 109 153 187 204 164 150 174 203 222 209 203 212 229 232 242 250 257 245 257 266
181 30 35 348 357 357 334 110 96 102 74 192 135 266 165 247 249 245 307 323 329 324 335 336 130 188 202 211 197 190 203 224 218 193 199 213 241 231 239 252 266 259 257 263
88 104 143 185 212 199 313 315 141 136 113 181 225 285 300 253 243 271 306 314 329 327 318 305 307 220 200 211 206 215 225 218 187 186 191 262 258 240 246 257 262 261 261 266
92 125 150 212 234 225 248 321 171 211 191 169 269 209 263 242 254 222 256 11 6 345 327 317 323 325 118 167 202 210 185 170 183 148 224 260 275 255 260 262 274 285 273 276
8 174 89 267 264 335 263 298 260 134 132 263 285 279 272 339 302 227 57 80 78 338 311 354 326 338 33 110 256 60 103 147 156 184 254 311 330 317 294 284 285 305 307 299
73 123 83 267 338 6 353 280 322 103 71 317 235 285 279 276 310 1 313 290 343 309 313 5 10 17 90 186 137 143 175 170 152 7 360 343 316 299 305 319 334 329 320 321
130 101 103 225 17 323 242 20 212 130 173 293 289 273 261 242 280 269 216 300 342 299 351 354 37 43 77 100 111 130 140 81 53 13 329 327 342 340 357 4 9 344 352 359
63 115 99 144 187 278 274 163 46 168 272 224 266 295 320 325 3 309 87 313 160 329 359 31 52 47 96 101 127 102 56 36 36 26 15 12 16 29 28 30 10 15 23 27
54 64 110 108 158 217 253 26 26 124 291 220 217 240 214 84 30 264 111 30 80 83 49 70 66 69 80 58 83 79 73 65 45 32 42 44 39 39 42 33 32 21 43 57
6 9 102 105 219 292 272 303 290 84 242 205 210 234 178 171 198 270 166 20 317 119 97 90 74 86 93 87 92 81 83 70 68 58 38 44 33 44 44 42 36 45 54 56
144 110 200 76 51 312 201 306 189 226 288 235 211 308 332 317 300 300 290 262 192 130 110 100 104 84 80 95 96 94 75 40 56 55 48 42 44 38 42 58 51 54 52 52
321 175 187 171 221 240 242 233 268 322 314 9 8 296 328 299 290 289 291 226 156 137 121 103 106 93 54 60 90 94 40 77 69 54 47 50 39 41 33 71 65 63 39 35
245 153 191 32 253 246 258 268 249 89 218 229 266 291 282 280 292 280 290 138 122 116 116 119 116 104 87 58 70 87 82 76 82 75 54 37 44 49 49 65 66 70 50 33
196 128 180 269 285 290 273 252 307 243 233 247 285 273 283 275 273 228 145 124 127 119 121 130 134 132 109 90 73 64 61 96 90 90 67 49 33 63 73 67 64 69 65 345
185 188 165 224 233 201 262 220 302 267 272 228 225 305 346 17 21 9 113 105 132 124 119 121 122 115 111 87 68 58 60 158 126 94 79 58 71 68 80 82 58 310 256 13